N5KR Weather Reports


time (UTC)temp
F
wind
direction
speed
knots
gust
knots
rain 1hr
in
rain 24hr
in
rain mn
in
humidity
%
barometer
mb
20260906225506 97 141 2.6 7.0 0.00 0.00 0.00 42 1011.7
20260906225005 97 194 5.2 10.4 0.00 0.00 0.00 42 1011.7
20260906224505 97 180 4.3 11.3 0.00 0.00 0.00 42 1011.7
20260906224006 97 135 5.2 11.3 0.00 0.00 0.00 42 1011.8
20260906223506 98 116 7.8 11.3 0.00 0.00 0.00 41 1011.7
20260906222505 98 161 1.7 8.7 0.00 0.00 0.00 41 1011.9
20260906222006 98 105 3.5 10.4 0.00 0.00 0.00 41 1011.9
20260906221505 98 144 3.5 7.0 0.00 0.00 0.00 40 1011.8
20260906221005 98 180 6.1 11.3 0.00 0.00 0.00 41 1011.7
20260906220505 98 94 1.7 7.8 0.00 0.00 0.00 41 1011.7
20260906220005 98 146 7.0 11.3 0.00 0.00 0.00 41 1011.8
20260906215505 98 132 6.1 11.3 0.00 0.00 0.00 41 1011.8
20260906214005 98 134 5.2 11.3 0.00 0.00 0.00 40 1012.0
20260906213505 99 124 3.5 10.4 0.00 0.00 0.00 39 1012.0
20260906213005 99 130 5.2 10.4 0.00 0.00 0.00 41 1012.1
20260906212505 98 114 5.2 10.4 0.00 0.00 0.00 40 1012.2
20260906212005 99 127 8.7 13.0 0.00 0.00 0.00 40 1012.2
20260906211505 99 96 5.2 11.3 0.00 0.00 0.00 39 1012.4
20260906211005 99 145 7.0 13.9 0.00 0.00 0.00 39 1012.4
20260906210505 99 140 7.8 13.9 0.00 0.00 0.00 39 1012.4
20260906205505 98 144 4.3 8.7 0.00 0.00 0.00 40 1012.6
20260906205005 99 146 7.8 11.3 0.00 0.00 0.00 39 1012.7
20260906204505 99 99 4.3 11.3 0.00 0.00 0.00 40 1012.9
20260906204005 99 105 7.8 11.3 0.00 0.00 0.00 41 1012.8
20260906203506 98 130 4.3 8.7 0.00 0.00 0.00 41 1012.8
20260906200005 97 130 5.2 12.2 0.00 0.00 0.00 43 1013.3
20260906195505 98 116 5.2 11.3 0.00 0.00 0.00 42 1013.4
20260906194504 97 134 5.2 11.3 0.00 0.00 0.00 46 1013.4
20260906194005 96 99 3.5 6.1 0.00 0.00 0.00 45 1013.5
20260906193005 98 159 4.3 8.7 0.00 0.00 0.00 44 1013.6
20260906192504 97 130 7.0 11.3 0.00 0.00 0.00 45 1013.6
20260906191505 99 159 4.3 8.7 0.00 0.00 0.00 46 1013.8
20260906190005 97 159 8.7 13.0 0.00 0.00 0.00 45 1014.0
20260906185004 95 120 5.2 11.3 0.00 0.00 0.00 47 1014.0
20260906184505 96 159 1.7 13.0 0.00 0.00 0.00 46 1014.1
20260906184005 97 112 4.3 11.3 0.00 0.00 0.00 46 1014.3
20260906183505 98 176 9.6 15.6 0.00 0.00 0.00 45 1014.2
20260906183004 97 168 6.1 14.8 0.00 0.00 0.00 46 1014.4
20260906182505 97 172 6.1 12.2 0.00 0.00 0.00 46 1014.4
20260906182005 96 112 3.5 11.3 0.00 0.00 0.00 47 1014.6
20260906181505 97 140 5.2 11.3 0.00 0.00 0.00 47 1014.5
20260906181004 96 158 7.0 11.3 0.00 0.00 0.00 46 1014.7
20260906180504 96 159 7.8 12.2 0.00 0.00 0.00 47 1014.6
20260906180004 96 159 5.2 10.4 0.00 0.00 0.00 46 1014.8
20260906175004 96 156 7.8 13.0 0.00 0.00 0.00 47 1015.0
20260906174504 96 116 5.2 12.2 0.00 0.00 0.00 47 1015.0
20260906174005 96 159 6.1 10.4 0.00 0.00 0.00 48 1015.1
20260906173505 96 172 2.6 7.8 0.00 0.00 0.00 49 1015.2
20260906173005 96 131 4.3 7.8 0.00 0.00 0.00 49 1015.3
20260906172504 96 125 2.6 7.0 0.00 0.00 0.00 49 1015.3
20260906172005 95 184 4.3 7.8 0.00 0.00 0.00 50 1015.4
20260906170504 95 169 5.2 10.4 0.00 0.00 0.00 50 1015.4
20260906170004 95 159 4.3 11.3 0.00 0.00 0.00 51 1015.4
20260906165505 94 166 7.8 11.3 0.00 0.00 0.00 52 1015.4
20260906165004 94 168 5.2 12.2 0.00 0.00 0.00 51 1015.4
20260906164505 94 152 5.2 10.4 0.00 0.00 0.00 52 1015.7
20260906164004 94 165 6.1 11.3 0.00 0.00 0.00 52 1015.6
20260906163505 93 140 3.5 7.8 0.00 0.00 0.00 53 1015.7
20260906163004 93 107 3.5 7.8 0.00 0.00 0.00 54 1015.7
20260906162505 93 109 2.6 7.0 0.00 0.00 0.00 54 1015.6
20260906161504 93 150 4.3 10.4 0.00 0.00 0.00 55 1015.4
20260906161004 92 156 2.6 11.3 0.00 0.00 0.00 56 1015.4
20260906160504 92 167 4.3 8.7 0.00 0.00 0.00 57 1015.5
20260906160004 92 140 2.6 8.7 0.00 0.00 0.00 57 1015.4
20260906155504 92 113 4.3 10.4 0.00 0.00 0.00 56 1015.4
20260906155004 91 121 4.3 7.8 0.00 0.00 0.00 60 1015.4
20260906153504 90 123 3.5 6.1 0.00 0.00 0.00 63 1015.4
20260906153004 91 104 2.6 7.0 0.00 0.00 0.00 62 1015.3
20260906152505 90 151 1.7 7.0 0.00 0.00 0.00 64 1015.2
20260906152004 89 112 4.3 7.0 0.00 0.00 0.00 64 1015.2
20260906151504 89 95 2.6 6.1 0.00 0.00 0.00 65 1015.2
20260906151005 89 120 2.6 7.0 0.00 0.00 0.00 67 1015.2
20260906150504 88 90 2.6 6.1 0.00 0.00 0.00 67 1015.2
20260906150004 88 110 1.7 7.0 0.00 0.00 0.00 68 1015.2
20260906145504 88 129 2.6 5.2 0.00 0.00 0.00 69 1015.2
20260906145005 87 63 4.3 7.0 0.00 0.00 0.00 69 1015.1
20260906144505 87 98 2.6 6.1 0.00 0.00 0.00 69 1015.1
20260906144005 87 101 1.7 6.1 0.00 0.00 0.00 70 1015.1
20260906143004 86 128 1.7 4.3 0.00 0.00 0.00 70 1015.3
20260906142504 86 136 2.6 4.3 0.00 0.00 0.00 72 1015.3
20260906142004 85 117 2.6 4.3 0.00 0.00 0.00 72 1015.2
20260906141504 85 118 1.7 4.3 0.00 0.00 0.00 72 1015.2
20260906140004 84 123 0.0 2.6 0.00 0.00 0.00 76 1015.1
20260906135504 83 123 0.9 2.6 0.00 0.00 0.00 76 1015.0
20260906135004 83 94 0.9 2.6 0.00 0.00 0.00 77 1015.0
20260906134504 82 93 1.7 4.3 0.00 0.00 0.00 77 1015.0
20260906134005 82 78 0.9 5.2 0.00 0.00 0.00 79 1015.0
20260906133004 81 107 0.0 2.6 0.00 0.00 0.00 81 1015.0
20260906132505 81 107 0.0 0.0 0.00 0.00 0.00 82 1015.0
20260906132005 80 107 0.0 0.0 0.00 0.00 0.00 83 1015.1
20260906131503 80 179 0.0 0.0 0.00 0.00 0.00 83 1015.0
20260906131004 79 179 0.0 0.0 0.00 0.00 0.00 84 1015.0
20260906130504 79 179 0.0 0.0 0.00 0.00 0.00 85 1014.9
20260906130004 79 179 0.0 0.0 0.00 0.00 0.00 86 1014.9
20260906125505 78 179 0.0 0.0 0.00 0.00 0.00 86 1014.8
20260906124504 78 179 0.0 0.0 0.00 0.00 0.00 87 1014.8
20260906124004 78 179 0.0 0.0 0.00 0.00 0.00 87 1014.8
20260906123504 77 179 0.0 0.0 0.00 0.00 0.00 87 1014.7
20260906123005 77 179 0.0 0.0 0.00 0.00 0.00 87 1014.7
20260906122504 77 179 0.0 0.0 0.00 0.00 0.00 87 1014.7
20260906122004 77 179 0.0 0.0 0.00 0.00 0.00 87 1014.6
20260906121504 77 179 0.0 0.0 0.00 0.00 0.00 87 1014.6
20260906121004 77 179 0.0 0.0 0.00 0.00 0.00 87 1014.5
20260906120504 77 179 0.0 0.0 0.00 0.00 0.00 87 1014.5
20260906120004 77 179 0.0 0.0 0.00 0.00 0.00 87 1014.5
20260906115504 77 179 0.0 0.0 0.00 0.00 0.00 86 1014.6
20260906115003 77 179 0.0 0.0 0.00 0.00 0.00 86 1014.4
20260906114504 77 179 0.0 0.0 0.00 0.00 0.00 86 1014.3
20260906114004 77 179 0.0 0.0 0.00 0.00 0.00 86 1014.3
20260906113504 77 179 0.0 0.0 0.00 0.00 0.00 86 1014.4
20260906113004 78 179 0.0 0.0 0.00 0.00 0.00 86 1014.2
20260906112004 78 179 0.0 0.0 0.00 0.00 0.00 86 1014.2
20260906111504 78 179 0.0 0.0 0.00 0.00 0.00 86 1014.2
20260906111004 78 179 0.0 0.0 0.00 0.00 0.00 86 1014.1
20260906110503 78 179 0.0 0.0 0.00 0.00 0.00 86 1014.1
20260906110004 78 179 0.0 0.0 0.00 0.00 0.00 85 1014.1
20260906105503 78 179 0.0 0.0 0.00 0.00 0.00 85 1013.9
20260906105004 78 179 0.0 0.0 0.00 0.00 0.00 85 1013.9
20260906104504 78 179 0.0 0.0 0.00 0.00 0.00 85 1013.9
20260906104003 78 179 0.0 0.0 0.00 0.00 0.00 85 1013.9
20260906103504 78 179 0.0 0.0 0.00 0.00 0.00 85 1014.0
20260906103004 78 179 0.0 0.0 0.00 0.00 0.00 85 1013.8
20260906102503 78 179 0.0 0.0 0.00 0.00 0.00 85 1013.8
20260906102003 78 179 0.0 0.0 0.00 0.00 0.00 84 1013.9
20260906101504 78 179 0.0 0.0 0.00 0.00 0.00 84 1013.8
20260906101003 78 179 0.0 0.0 0.00 0.00 0.00 84 1013.8
20260906100503 78 179 0.0 0.0 0.00 0.00 0.00 84 1013.7
20260906100004 78 179 0.0 0.0 0.00 0.00 0.00 84 1013.7
20260906095504 78 179 0.0 0.0 0.00 0.00 0.00 83 1013.7
20260906095003 78 179 0.0 0.0 0.00 0.00 0.00 84 1013.7
20260906094504 78 179 0.0 0.0 0.00 0.00 0.00 83 1013.5
20260906094004 79 179 0.0 0.0 0.00 0.00 0.00 83 1013.5
20260906093504 79 179 0.0 0.0 0.00 0.00 0.00 83 1013.5
20260906093004 79 179 0.0 0.0 0.00 0.00 0.00 82 1013.5
20260906092007 79 179 0.0 0.0 0.00 0.00 0.00 81 1013.3
20260906091506 79 179 0.0 0.0 0.00 0.00 0.00 81 1013.3
20260906091007 80 179 0.0 0.0 0.00 0.00 0.00 81 1013.2
20260906090507 80 179 0.0 0.0 0.00 0.00 0.00 80 1013.3
20260906090007 80 179 0.0 0.0 0.00 0.00 0.00 79 1013.3
20260906085507 80 179 0.9 1.7 0.00 0.00 0.00 79 1013.1
20260906085007 80 179 0.9 2.6 0.00 0.00 0.00 79 1013.2
20260906084506 80 179 0.9 4.3 0.00 0.00 0.00 79 1013.1
20260906084006 80 179 1.7 4.3 0.00 0.00 0.00 79 1013.2
20260906083506 81 155 1.7 4.3 0.00 0.00 0.00 78 1013.1
20260906083006 81 163 0.0 4.3 0.00 0.00 0.00 78 1013.2
20260906082507 81 163 2.6 5.2 0.00 0.00 0.00 78 1013.2
20260906082007 81 190 0.0 1.7 0.00 0.00 0.00 77 1013.0
20260906081506 81 190 1.7 5.2 0.00 0.00 0.00 77 1013.1
20260906081007 81 173 0.0 2.6 0.00 0.00 0.00 77 1013.1
20260906080507 81 169 0.0 0.0 0.00 0.00 0.00 77 1013.3
20260906075506 81 181 1.7 2.6 0.00 0.00 0.00 77 1013.4
20260906075006 81 174 1.7 2.6 0.00 0.00 0.00 77 1013.4
20260906074506 81 181 0.9 4.3 0.00 0.00 0.00 76 1013.3
20260906074006 81 181 0.9 4.3 0.00 0.00 0.00 76 1013.3
20260906073506 81 182 0.9 4.3 0.00 0.00 0.00 76 1013.1
20260906072507 81 261 0.9 2.6 0.00 0.00 0.00 76 1013.2
20260906072006 82 160 0.0 0.0 0.00 0.00 0.00 76 1013.3
20260906071506 82 160 0.0 0.0 0.00 0.00 0.00 75 1013.4
20260906071007 82 160 0.0 1.7 0.00 0.00 0.00 75 1013.5
20260906070507 82 160 1.7 4.3 0.00 0.00 0.00 75 1013.5
20260906070006 82 160 1.7 5.2 0.00 0.00 0.00 74 1013.5
20260906065507 82 192 2.6 7.0 0.00 0.00 0.00 74 1013.6
20260906065006 82 175 2.6 6.1 0.00 0.00 0.00 73 1013.6
20260906064507 82 173 3.5 6.1 0.00 0.00 0.00 73 1013.6
20260906064007 83 174 1.7 2.6 0.00 0.00 0.00 72 1013.6
20260906063507 83 172 0.9 5.2 0.00 0.00 0.00 72 1013.5
20260906063007 83 181 3.5 6.1 0.00 0.00 0.00 71 1013.5
20260906062507 83 163 0.9 6.1 0.00 0.00 0.00 71 1013.5
20260906062007 83 161 4.3 6.1 0.00 0.00 0.00 71 1013.6
20260906061506 83 172 2.6 6.1 0.00 0.00 0.00 70 1013.7
20260906061006 83 185 1.7 5.2 0.00 0.00 0.00 69 1013.6
20260906060507 83 178 1.7 4.3 0.00 0.00 0.00 69 1013.7
20260906060007 83 175 0.9 2.6 0.00 0.00 0.00 69 1013.6
20260906055506 83 175 1.7 4.3 0.00 0.00 0.00 68 1013.5
20260906055007 84 179 0.9 5.2 0.00 0.00 0.00 68 1013.6
20260906054507 84 177 0.9 4.3 0.00 0.00 0.00 68 1013.7
20260906053506 84 156 1.7 5.2 0.00 0.00 0.00 67 1013.5
20260906053006 84 186 0.9 5.2 0.00 0.00 0.00 67 1013.5
20260906052506 84 159 1.7 5.2 0.00 0.00 0.00 67 1013.4
20260906052006 84 184 0.9 2.6 0.00 0.00 0.00 67 1013.5
20260906051506 84 184 0.9 2.6 0.00 0.00 0.00 66 1013.4
20260906051007 85 183 2.6 5.2 0.00 0.00 0.00 66 1013.5
20260906050506 85 191 1.7 5.2 0.00 0.00 0.00 66 1013.5
20260906050006 85 190 1.7 6.1 0.00 0.00 0.00 66 1013.5
20260906045506 85 186 0.9 5.2 0.00 0.00 0.00 66 1013.5
20260906045006 85 153 2.6 7.0 0.00 0.00 0.00 66 1013.5
20260906044506 85 167 4.3 10.4 0.00 0.00 0.00 66 1013.6
20260906044006 85 165 2.6 8.7 0.00 0.00 0.00 66 1013.5
20260906043506 85 157 2.6 7.8 0.00 0.00 0.00 66 1013.6
20260906042506 85 166 4.3 7.8 0.00 0.00 0.00 65 1013.5
20260906042006 85 174 4.3 7.8 0.00 0.00 0.00 65 1013.5
20260906041506 85 155 7.0 11.3 0.00 0.00 0.00 65 1013.7
20260906041006 86 165 5.2 10.4 0.00 0.00 0.00 65 1013.5
20260906040506 86 173 3.5 8.7 0.00 0.00 0.00 65 1013.5
20260906035006 86 183 4.3 7.0 0.00 0.00 0.00 64 1013.5
20260906034506 86 168 2.6 8.7 0.00 0.00 0.00 64 1013.5
20260906033006 86 175 5.2 10.4 0.00 0.00 0.00 63 1013.5
20260906032506 86 159 5.2 11.3 0.00 0.00 0.00 63 1013.4
20260906032006 86 168 5.2 7.8 0.00 0.00 0.00 63 1013.5
20260906031505 87 151 4.3 8.7 0.00 0.00 0.00 62 1013.6
20260906031006 87 178 3.5 11.3 0.00 0.00 0.00 62 1013.6
20260906030506 87 172 5.2 10.4 0.00 0.00 0.00 61 1013.6
20260906030006 87 182 3.5 6.1 0.00 0.00 0.00 61 1013.5
20260906025505 87 164 1.7 5.2 0.00 0.00 0.00 61 1013.5
20260906025006 87 157 1.7 5.2 0.00 0.00 0.00 61 1013.4
20260906024506 87 157 1.7 7.0 0.00 0.00 0.00 61 1013.4
20260906023505 87 169 3.5 8.7 0.00 0.00 0.00 60 1013.1
20260906022506 87 144 2.6 7.0 0.00 0.00 0.00 60 1013.0
20260906022006 87 157 1.7 7.0 0.00 0.00 0.00 60 1013.0
20260906021506 87 169 1.7 5.2 0.00 0.00 0.00 60 1012.9
20260906021006 88 163 1.7 7.8 0.00 0.00 0.00 59 1012.8
20260906020506 88 183 3.5 11.3 0.00 0.00 0.00 59 1012.8
20260906020006 88 144 5.2 10.4 0.00 0.00 0.00 59 1012.7
20260906015506 88 137 6.1 11.3 0.00 0.00 0.00 58 1012.7
20260906015006 88 164 7.8 13.9 0.00 0.00 0.00 58 1012.7
20260906014506 88 159 7.8 11.3 0.00 0.00 0.00 57 1012.6
20260906013506 89 159 6.1 12.2 0.00 0.00 0.00 55 1012.4
20260906013006 90 171 4.3 13.9 0.00 0.00 0.00 55 1012.4
20260906012006 91 158 7.0 13.9 0.00 0.00 0.00 53 1012.0
20260906011506 91 150 7.8 12.2 0.00 0.00 0.00 52 1012.0
20260906011006 92 160 7.8 12.2 0.00 0.00 0.00 51 1012.0
20260906010505 92 159 5.2 13.9 0.00 0.00 0.00 51 1011.9
20260906005507 93 162 7.0 13.0 0.00 0.00 0.00 49 1011.8
20260906005006 94 161 8.7 15.6 0.00 0.00 0.00 48 1011.7
20260906004506 95 139 3.5 8.7 0.00 0.00 0.00 45 1011.6
20260906004006 95 173 4.3 7.8 0.00 0.00 0.00 45 1011.6
20260906003506 95 141 3.5 7.8 0.00 0.00 0.00 44 1011.6
20260906002506 95 146 2.6 6.1 0.00 0.00 0.00 43 1011.6
20260906002005 95 139 4.3 7.8 0.00 0.00 0.00 44 1011.6
20260906001506 96 156 4.3 8.7 0.00 0.00 0.00 43 1011.7
20260906001006 96 164 3.5 6.1 0.00 0.00 0.00 43 1011.7
20260906000506 96 160 3.5 8.7 0.00 0.00 0.00 42 1011.7
20260905235505 96 138 3.5 8.7 0.00 0.00 0.00 42 1011.5
20260905235006 96 168 4.3 7.8 0.00 0.00 0.00 41 1011.4
20260905234505 96 180 4.3 7.0 0.00 0.00 0.00 41 1011.3
20260905234005 97 155 3.5 7.0 0.00 0.00 0.00 41 1011.4
20260905233505 97 148 3.5 8.7 0.00 0.00 0.00 41 1011.4
20260905233006 97 134 4.3 10.4 0.00 0.00 0.00 41 1011.4
20260905232505 97 120 2.6 7.0 0.00 0.00 0.00 40 1011.4
20260905231506 97 66 4.3 7.8 0.00 0.00 0.00 40 1011.4
20260905231006 97 119 1.7 7.8 0.00 0.00 0.00 40 1011.5
20260905230506 97 117 4.3 8.7 0.00 0.00 0.00 40 1011.4
20260905230005 97 71 4.3 8.7 0.00 0.00 0.00 40 1011.4